Weather in Novomarkovka

Russia / Voronezh Oblast     49˚42′58″N   39˚44′36″E
temp.,
°C
wind,
m/s
gust,
m/s
humid.,
%
clouds,
%
prec.,
mm/h
press.,
hPa
HPBL,
m
15 january, fri
fri1500:00−10˚w128975 0.0 100921
03:00−10˚ne228987 0.0 100921
06:00−10˚ene2293100 0.0 100924
09:00−9˚ene2394100 0.1 1009128
12:00−8˚nnw2396100 1.9 1009161
15:00−7˚nnw2396100 4.1 1008259
18:00−7˚wnw2397100 1.2 100896
21:00−8˚w2395100 1.5 100929
16 january, sat
sat1600:00−9˚sw3696100 0.0 100896
03:00−10˚sw449787 0.1 100884
06:00−9˚wsw61292100 0.2 1008413
09:00−14˚wsw71393100 0.2 1010439
12:00−13˚wsw71289100 0.0 1012613
15:00−12˚wsw71387100 0.0 1013738
18:00−14˚wsw5129192 0.0 1014328
21:00−16˚wsw479750 0.0 1016117
17 january, sun
sun1700:00−18˚wsw349748 0.0 101658
03:00−18˚wsw349740 0.0 101741
06:00−19˚wnw239878 0.0 101620
09:00−20˚wnw119873 0.0 101720
12:00−16˚nnw2292100 0.0 1016135
15:00−16˚nnw249299 0.0 1016187
18:00−18˚ne2393100 0.0 101622
21:00−18˚nne3595100 0.0 1017126
18 january, mon
mon1800:00−19˚nne3596100 0.0 1016131
03:00−18˚ne3595100 0.0 1016189
06:00−17˚nne3597100 0.3 1016204
09:00−17˚nne2397100 1.4 1018165
12:00−15˚nne2495100 0.8 1018235
15:00−15˚n1292100 1.1 1017232
18:00−18˚nne229792 0.0 101820
21:00−18˚nw119887 0.1 101920
19 january, tue
tue1900:00−21˚nne1110082 0.1 101920
03:00−20˚wsw119977 0.1 101920
06:00−20˚w1199100 0.1 101920
09:00−21˚wsw019999 0.1 102120
12:00−17˚wnw229388 0.1 1020232
15:00−17˚wnw129694 0.1 102069
18:00−21˚wnw1210081 0.0 102220
21:00−21˚wnw1210090 0.1 102320